Theta_e
322 322 322 322 322 322 322 322 322 321 321 320 319 320 320 321 320 321 322 322 323 323 323 323 322 321 321 321 321 320 319 319 319 319 319 319 318 318 318 318 318 319
319 320 320 320 321 320 320 321 322 321 321 320 320 320 320 319 319 320 320 320 320 321 322 322 321 321 320 320 319 319 319 318 318 318 319 318 319 319 318 319 318 319
313 315 317 318 319 320 320 320 319 320 320 320 320 319 319 318 317 317 318 319 319 319 320 320 320 319 319 319 318 318 318 318 318 318 318 318 319 319 319 320 319 319
306 308 312 314 316 317 317 317 317 317 317 317 318 318 318 318 316 316 316 314 318 318 319 319 319 319 318 318 318 317 317 318 319 318 317 318 319 319 319 320 319 319
302 303 304 306 308 310 311 313 315 315 315 316 316 316 316 316 316 316 316 316 317 317 318 318 318 318 318 318 317 317 318 318 318 318 318 318 319 319 320 319 318 318
301 301 301 302 303 304 306 307 310 311 313 313 314 313 314 315 315 315 315 316 316 316 316 317 317 317 317 317 318 319 319 318 319 318 318 318 318 319 319 319 318 317
301 300 301 301 300 301 302 304 305 305 307 309 307 310 310 312 313 314 315 315 316 315 316 316 316 316 317 317 318 318 319 319 319 319 318 318 318 317 317 317 314 311
299 299 300 300 300 302 303 303 304 305 306 306 307 308 307 309 310 312 312 313 314 314 314 315 315 316 316 318 317 318 318 319 319 318 318 318 317 315 313 311 309 306
298 299 299 300 302 304 305 305 306 307 308 308 308 309 308 308 308 309 310 311 311 312 313 313 314 315 316 317 318 318 318 318 318 318 317 315 314 311 309 307 304 301
296 297 298 301 303 305 305 306 307 307 307 307 308 308 308 308 308 308 308 308 309 309 310 312 314 315 316 317 318 318 318 317 315 314 313 312 309 307 305 303 301 298
296 295 296 300 302 304 304 305 305 305 306 306 307 306 306 306 306 306 307 307 309 310 311 313 314 315 315 316 316 314 312 308 306 304 303 302 302 301 298 299 297 293
293 293 295 297 299 300 301 302 302 303 304 304 305 306 305 304 306 307 307 307 308 310 311 312 313 313 313 311 308 306 303 301 299 297 296 295 294 294 294 293 291 290
292 291 292 292 294 297 299 300 299 298 299 300 299 301 301 302 301 303 302 306 306 308 308 308 307 306 305 303 302 300 298 296 294 292 291 291 290 289 288 288 287 286
291 290 289 290 291 294 297 297 297 297 296 296 296 297 297 296 298 299 299 300 300 301 302 303 303 302 301 299 298 296 295 293 292 289 287 286 286 286 285 285 285 285
290 289 289 289 290 293 296 296 296 295 294 293 293 294 295 294 297 297 295 295 296 297 298 299 299 298 298 296 295 293 291 289 288 286 284 284 284 284 284 284 284 284
288 287 287 287 291 294 294 292 291 291 291 291 292 291 291 292 293 293 294 294 294 294 295 297 297 296 291 292 292 290 288 287 286 285 284 283 282 283 283 283 284 284
287 287 285 287 290 291 292 291 292 290 290 289 289 290 290 290 292 293 292 292 293 293 292 293 293 292 291 292 291 290 287 286 285 285 285 284 283 282 282 282 282 282
288 287 286 287 289 291 291 289 289 289 289 289 289 289 289 289 290 290 291 291 291 291 291 291 291 290 292 291 290 289 287 286 285 285 284 283 283 282 282 282 282 282
288 288 288 288 289 289 288 288 288 288 287 287 287 287 288 288 289 289 289 289 290 289 289 289 290 290 290 290 289 288 288 286 285 284 283 283 283 283 283 282 282 281
288 288 288 288 288 288 287 287 287 286 286 287 287 287 288 288 288 288 288 288 288 288 288 289 289 289 290 290 290 289 288 287 284 283 283 283 282 282 282 282 282 282
287 287 288 287 287 287 287 286 286 286 286 286 287 287 287 287 287 287 287 287 288 288 288 287 288 289 289 289 288 288 287 285 283 282 282 281 281 281 281 282 282 283
287 287 287 287 287 286 286 286 285 285 285 285 286 286 286 286 286 287 286 286 287 287 287 286 287 288 288 288 287 287 286 282 282 281 281 280 280 281 281 282 282 283
286 286 287 287 287 286 286 285 285 285 285 286 286 286 286 285 285 285 286 286 286 286 285 285 285 287 287 287 286 286 284 281 281 280 280 280 280 281 281 282 282 282
286 286 286 286 286 286 285 285 284 285 285 285 285 285 284 284 284 283 284 284 284 284 285 284 284 285 286 286 285 284 283 280 280 279 279 280 280 281 281 281 282 282
286 285 286 287 287 286 285 284 284 284 284 285 285 284 283 283 283 283 283 283 283 283 283 283 283 284 286 285 285 284 282 280 280 279 278 278 278 279 280 281 281 282
285 285 285 286 286 285 284 284 284 284 284 284 283 283 282 282 282 282 281 281 282 282 282 282 282 282 283 285 284 283 283 280 280 279 278 277 278 278 278 278 279 281
Wind_Speed
7 7 8 8 9 8 8 8 8 8 8 7 7 8 8 9 6 8 9 9 9 9 9 9 9 8 9 8 8 8 8 9 8 7 9 9 9 9 9 10 10 9
7 6 6 6 7 7 7 8 8 7 8 7 8 7 6 6 7 7 8 8 8 9 9 8 8 9 9 8 8 8 8 8 9 7 9 10 9 10 11 11 11 10
7 6 6 7 8 8 8 7 6 7 7 8 7 6 7 5 6 5 7 7 7 8 8 9 9 9 9 9 8 8 8 9 9 8 9 10 9 9 9 10 9 10
7 7 7 7 7 7 6 6 6 6 6 7 8 7 6 6 6 6 6 7 8 8 8 8 9 8 8 9 8 8 9 9 9 8 9 8 8 9 9 8 8 8
7 7 6 6 7 7 7 7 7 6 7 8 7 7 7 7 6 7 7 7 8 8 8 9 8 9 9 9 9 9 9 8 8 8 8 8 8 8 8 8 8 9
5 5 6 6 7 7 7 7 7 6 7 6 7 6 6 6 7 7 7 8 8 9 8 8 8 8 8 8 8 9 8 8 8 9 9 9 8 7 7 8 9 8
9 7 7 6 6 6 7 7 7 6 6 6 5 6 5 7 7 7 8 8 8 8 9 9 9 8 7 7 8 8 8 8 8 9 9 8 8 8 7 6 5 5
7 7 6 6 6 5 6 6 6 7 7 7 7 7 5 7 7 7 7 8 8 9 8 8 8 8 7 7 8 8 8 8 8 9 9 8 7 6 5 5 6 8
6 6 6 7 7 6 6 6 6 6 5 6 7 7 6 6 7 7 7 7 8 8 7 7 7 7 7 8 8 9 9 9 9 9 9 8 7 6 7 8 9 9
7 6 7 6 7 6 7 6 6 6 6 6 6 6 6 6 6 7 7 8 8 7 7 7 7 7 7 8 9 9 9 9 7 5 5 6 7 8 8 9 11 10
8 6 7 7 7 6 7 7 6 6 6 6 6 5 6 5 6 6 7 7 8 7 7 7 7 7 7 8 7 5 5 6 6 7 7 7 7 8 7 9 9 11
8 7 7 7 7 7 6 6 6 5 5 5 4 6 5 4 5 5 5 6 5 5 5 6 6 6 6 5 6 7 7 8 9 9 9 10 9 9 9 8 10 9
9 8 7 6 6 7 6 5 5 5 5 4 4 3 3 3 3 3 2 3 3 4 4 5 5 5 6 7 7 8 9 11 11 12 11 11 10 9 10 9 9 10
9 7 6 6 5 5 6 4 4 4 4 4 3 2 2 2 2 2 2 1 2 2 2 3 6 7 8 9 9 9 10 10 11 13 13 13 12 10 10 10 10 9
9 7 5 5 5 4 5 5 4 3 3 3 2 2 2 1 2 2 2 2 3 4 4 4 5 6 7 10 11 10 11 13 11 12 12 15 14 12 10 10 10 10
8 6 5 4 4 4 4 4 4 3 2 2 2 2 2 2 2 3 3 3 4 5 5 5 5 5 9 13 12 13 12 11 10 12 12 12 14 12 12 11 11 11
8 7 4 4 4 3 3 4 4 3 2 2 2 2 2 2 2 3 3 3 4 5 6 5 5 6 13 18 18 17 15 14 14 11 12 12 13 14 11 8 8 7
9 7 5 5 3 3 2 3 2 2 2 2 2 2 2 2 3 3 3 4 5 5 6 6 7 10 14 16 19 19 14 13 14 13 10 11 12 11 8 9 8 9
9 8 6 5 4 2 1 1 1 1 1 1 2 2 2 3 2 4 3 3 6 7 8 7 8 12 16 16 18 21 20 16 12 12 12 11 10 9 10 9 8 9
9 7 7 5 3 1 1 0 0 0 1 1 1 3 3 3 3 4 4 5 6 8 9 8 8 11 12 15 15 16 17 16 12 12 12 10 9 10 9 8 7 9
9 8 7 4 3 2 2 1 1 1 0 0 2 3 4 4 3 4 5 5 7 7 9 9 9 14 13 16 17 19 19 15 12 11 11 10 10 10 9 8 7 8
9 9 7 4 4 3 3 3 2 2 2 2 3 4 5 5 5 5 5 6 7 8 10 10 9 12 14 18 20 22 19 12 11 12 12 11 10 9 8 7 7 8
8 9 8 6 5 5 4 4 4 3 3 2 5 5 6 6 6 5 4 7 8 8 11 11 11 11 12 15 18 19 14 11 11 11 11 11 10 8 8 8 8 8
9 8 9 7 5 6 6 5 3 3 3 2 4 6 6 6 6 7 6 6 9 9 9 11 10 11 13 15 15 13 11 12 10 11 11 11 9 9 8 9 9 10
9 9 8 7 7 6 6 7 6 5 3 3 4 5 6 6 7 8 6 6 6 7 11 12 11 11 13 15 16 14 10 9 10 11 11 9 8 9 7 7 7 9
8 9 9 8 7 6 6 6 6 5 5 6 6 6 7 7 8 8 7 6 6 6 6 6 10 9 10 15 16 16 13 10 8 12 12 10 7 8 8 7 7 7
Wind_Direction
245 235 237 237 238 238 245 243 233 233 238 232 231 233 223 231 213 214 216 216 219 222 221 221 220 219 219 218 212 212 213 214 213 206 205 205 210 206 210 210 211 213
276 268 261 258 257 248 248 246 252 241 247 240 240 242 240 231 225 217 218 219 218 222 222 222 220 217 214 213 210 209 213 208 214 199 206 205 207 205 212 210 213 214
299 284 268 255 256 261 257 261 258 258 254 253 252 240 244 234 239 224 225 220 222 224 223 222 220 216 212 211 205 206 209 209 213 200 205 208 203 206 211 212 213 212
318 312 306 298 288 276 273 267 258 251 251 255 249 248 238 238 226 230 227 223 225 226 223 221 220 216 211 209 203 207 208 210 209 198 205 209 206 208 211 211 212 212
317 314 309 303 297 295 296 283 274 265 257 255 263 252 249 243 235 234 226 226 224 230 224 223 219 217 210 209 202 207 204 206 202 196 202 207 207 206 209 205 209 215
312 307 304 301 299 302 294 281 277 279 278 276 263 264 254 251 243 240 234 234 230 228 227 224 221 220 210 209 204 210 203 204 198 196 203 207 208 207 206 207 212 214
315 316 307 309 308 302 295 293 292 287 280 275 294 272 263 253 247 241 240 238 237 232 229 226 222 219 206 205 206 208 204 201 196 197 204 206 204 206 209 205 182 131
303 304 302 305 295 287 292 286 287 291 294 300 287 284 277 269 258 249 241 240 237 236 231 228 222 217 203 200 204 204 204 197 199 199 202 203 195 194 168 129 123 116
293 288 292 286 280 277 284 276 271 272 267 268 277 282 274 261 263 258 253 242 238 234 228 223 215 211 201 198 202 200 199 200 199 196 195 188 175 154 136 125 112 109
290 293 282 281 292 293 288 279 268 263 255 254 255 256 265 266 256 258 254 244 236 231 221 215 208 203 198 199 200 200 202 195 185 176 163 147 136 129 130 129 126 115
296 294 288 290 286 288 288 290 285 278 268 258 256 250 250 260 265 247 247 241 230 221 212 206 202 195 193 198 198 181 151 123 113 107 99 93 96 104 110 118 116 115
295 298 292 289 290 288 290 296 296 293 290 281 272 268 263 263 262 249 232 235 229 217 205 197 190 187 179 157 129 116 105 98 94 87 84 85 81 82 88 74 104 106
296 290 286 288 288 288 293 298 303 304 308 304 310 292 290 280 291 281 266 202 209 192 185 167 146 129 118 111 107 106 109 108 100 93 87 85 79 76 80 81 78 84
291 289 285 282 284 288 294 301 310 318 321 319 324 340 331 334 327 313 321 41 101 107 110 126 130 126 119 111 106 110 107 99 107 108 101 92 87 83 82 82 80 73
291 288 282 283 284 288 298 308 310 317 325 331 342 343 348 349 27 26 23 27 45 59 64 69 94 109 125 126 118 105 102 106 107 110 109 109 102 95 86 83 83 85
284 280 281 284 286 285 298 308 313 321 333 345 352 345 348 5 39 57 68 67 73 69 66 78 88 90 108 107 114 120 111 106 103 100 101 106 112 107 96 91 92 92
289 277 276 275 273 302 308 304 311 323 344 357 355 1 2 356 38 83 76 65 79 93 89 76 85 106 121 117 116 115 118 118 109 103 106 109 107 106 108 105 89 80
292 281 272 263 271 268 293 311 324 338 352 360 6 10 358 26 55 47 81 99 90 82 84 89 93 109 113 118 116 113 113 112 114 116 113 108 112 105 104 102 105 99
288 277 267 259 248 242 311 341 321 344 353 11 18 354 24 51 54 76 56 77 106 103 98 94 105 119 119 109 108 116 117 114 113 115 115 114 115 110 104 104 106 99
283 268 260 253 235 186 120 62 346 347 352 359 57 57 67 60 62 75 78 83 96 105 104 101 102 114 98 101 106 108 108 106 111 111 106 108 107 97 95 99 105 109
280 264 254 241 208 169 138 135 149 210 99 51 90 90 90 81 77 90 82 87 92 97 102 100 104 104 99 105 106 102 96 98 105 104 103 97 91 91 96 103 103 102
278 267 255 233 196 172 165 167 182 210 176 163 113 98 92 93 75 73 87 92 93 103 105 100 96 94 106 108 108 107 107 103 106 103 99 95 88 87 90 86 88 90
274 264 253 228 201 183 180 179 176 187 197 188 126 119 110 99 99 89 91 102 103 103 108 107 107 104 98 105 106 110 108 109 106 102 99 96 94 91 86 82 80 81
271 254 250 229 206 196 185 173 164 186 189 200 137 129 113 110 107 97 77 90 109 111 112 116 114 108 99 97 99 105 110 113 113 108 102 101 96 87 86 85 79 77
266 254 244 232 213 198 177 169 173 172 174 132 115 110 109 105 101 101 88 72 61 93 117 118 117 110 104 105 107 109 107 114 118 115 107 100 99 94 82 87 92 91
259 249 241 230 216 185 170 168 155 150 159 142 126 122 118 113 109 98 82 70 58 73 84 95 110 110 110 116 121 124 128 128 131 119 114 109 99 107 105 86 81 84